User: anonymous   Login
Location: Tauranga
(37.6860°S, 176.1670°E)
Time: 11:18:43
(UTC+13:00)
Language:

Cosmos 968 Rocket - Orbit

View from above orbital plane
View from above orbital plane
View from above satellite
View from above satellite

Ground track
Ground track

The orbit data is extracted from the following two-line orbital elements,

1 10521U 77119B   19288.03010709  .00000094  00000-0  37622-4 0  9999
2 10521  74.0264 134.0834 0021951 297.9902  61.9031 14.40764250194640
Epoch (UTC): 15 October 2019 00:43:21
Eccentricity: 0.0021951
inclination: 74.0264°
perigee height: 740 km
apogee height: 771 km
right ascension of ascending node: 134.0834°
argument of perigee: 297.9902°
revolutions per day: 14.40764250
mean anomaly at epoch: 61.9031°
orbit number at epoch: 19464

The dashed part of the orbit path shows where the satellite is in the earth's shadow,  

DLR